Weather Roundup
Issued by NWS Springfield, MO

Home | Current Version | Previous Version | Text Only | Print | Product List | Glossary On
Versions: 1 2 3 4 5 6 7 8 9 10 11 12 13 14 15 16 17 18 19 20 21 22 23 24 25 26 27 28 29 30 31 32 33 34 35 36 37 38 39 40 41 42 43 44 45 46 47 48 49 50
000
NZUS99 KSGF 021857
HRRSGF

HOURLY WEATHER
NATIONAL WEATHER SERVICE SPRINGFIELD MO
200 PM CDT MON MAY 02 2016

......SGF CWA......

CITY           SKY/WX    TMP DP  RH WIND       PRES   REMARKS
SPRINGFIELD    CLOUDY    54  45  71 NW9       30.08F
JOPLIN         CLOUDY    52  45  77 NW9       30.11F
WEST PLAINS    CLOUDY    60  45  57 NW9       30.06S
ROLLA          CLOUDY    53  46  77 SW8       30.05F
BRANSON        CLOUDY    57  46  67 NW5       30.08F

......SURROUNDING SGF CWA......

CITY           SKY/WX    TMP DP  RH WIND       PRES   REMARKS
CHANUTE        CLOUDY    55  43  63 NW7       30.12F
PARSONS        CLOUDY    58  45  62 NW12      30.12F
COFFEYVILLE    CLOUDY    56  44  64 NW6       30.13F
EMPORIA        CLOUDY    57  41  55 NW10      30.11F
HARRISON AR    CLOUDY    55  48  77 S3        30.08F

......KANSAS AND MISSOURI......

CITY           SKY/WX    TMP DP  RH WIND       PRES   REMARKS
KANSAS CTY INT CLOUDY    54  45  71 N5        30.10F
SEDALIA        CLOUDY    55  46  71 W5        30.09F
ST JOSEPH      MOSUNNY   59  46  62 NW5       30.10F
ST LOUIS       LGT RAIN  55  47  74 N3        30.06S
WICHITA        PTSUNNY   61  40  45 N12G21    30.14F
TOPEKA         CLOUDY    55  44  66 NE8       30.11F
OLATHE         CLOUDY    52  43  71 N7        30.10F

......TENNESSEE......

CITY           SKY/WX    TMP DP  RH WIND       PRES   REMARKS
MEMPHIS        NOT AVBL
NASHVILLE      RAIN      59  56  89 S5        29.99F FOG

......ARKANSAS.......

CITY           SKY/WX    TMP DP  RH WIND       PRES   REMARKS
FAYETTEVILLE   CLOUDY    55  49  80 W9        30.09R
FT SMITH       CLOUDY    65  47  52 NW10      30.07F
LITTLE ROCK    CLOUDY    66  53  63 E6        30.03F

......OKLAHOMA.......

CITY           SKY/WX    TMP DP  RH WIND       PRES   REMARKS
TULSA          CLOUDY    57  44  62 NW13      30.12F
PONCA CITY     CLOUDY    58  43  57 N13       30.15F
MCALESTER      CLOUDY    59  48  67 N13       30.12F
OKLAHOMA CITY  PTSUNNY   59  43  55 N15       30.16F

......IOWA............

CITY           SKY/WX    TMP DP  RH WIND       PRES   REMARKS
DES MOINES     NOT AVBL
QUAD CITIES    CLOUDY    61  41  47 E8        30.06S

......ILLINOIS........

CITY           SKY/WX    TMP DP  RH WIND       PRES   REMARKS
QUINCY         NOT AVBL
CHICAGO        PTSUNNY   57  36  45 NE17G24   30.05S



USA.gov is the U.S. government's official web portal to all federal, state and local government web resources and services.